Flag Weather past 2 weeks in Santa Clara, Cuba

Now
81 °F

Passing clouds.


Feels Like: 85 °F
Forecast: 69 / 89 °F
Wind: 5 mph from East

Location: Cienfuegos - Las Villas

Current Time: Nov 24, 2014 at 9:10:32 AM

Latest Report: Nov 24, 2014 at 8:50 AM


Visibility: N/A

Pressure: 30.01 "Hg

Humidity: 79%

Dew point: 73 °F

Location of Santa ClaraLocation

Historic Weather in Santa Clara — Graph

°F

Santa Clara temperature yesterday

Maximum temperature yesterday: 90 °F (at 11:51 AM)
Minimum temperature yesterday: 70 °F (at 11:58 PM)
Average temperature yesterday: 79 °F

Past Weeks' High & Low Weather Summary

 TemperatureHumidityPressure
High91 °F (Nov 18, 11:51 AM)100% (Nov 9, 11:58 PM)30.12 "Hg (Nov 9, 11:58 PM)
Low59 °F (Nov 12, 5:58 AM)45% (Nov 12, 2:50 PM)29.83 "Hg (Nov 9, 1:50 PM)
Average76 °F84%30.00 "Hg
* Reported Nov 9 7:51 AM — Nov 24 7:51 AM, Santa Clara, Weather by CustomWeather, © 2014

Note: Actual official high and low records may vary slightly from our data, if they occured in-between our weather recording intervals... More about our weather records

Advertising

Santa Clara weather history for previous 24 hours

 ConditionsComfort  
Time TempWeatherWind HumidityBarometerVisibility
7:51 AM
Nov 24
73 °FPassing clouds.3 mph94%29.98 "HgN/A
6:58 AM72 °FMild.3 mph94%29.98 "HgN/A
5:58 AM70 °FMild.3 mph94%29.95 "HgN/A
4:58 AM72 °FMild.6 mph88%29.95 "HgN/A
3:57 AM70 °FMild.5 mph94%29.92 "HgN/A
2:58 AM70 °FMild.5 mph94%29.92 "HgN/A
1:58 AM70 °FMild.5 mph94%29.92 "HgN/A
12:58 AM70 °FMild.5 mph94%29.95 "HgN/A
11:58 PM
Nov 23
70 °FMild.5 mph94%29.95 "HgN/A
10:58 PM72 °FMild.5 mph94%29.95 "HgN/A
9:58 PM72 °FMild.3 mph94%29.95 "HgN/A
8:58 PM73 °FMild.3 mph89%29.95 "HgN/A
7:58 PM77 °FWarm.3 mph79%29.95 "HgN/A
6:57 PM79 °FWarm.6 mph74%29.92 "HgN/A
5:58 PM81 °FWarm.8 mph70%29.92 "HgN/A
4:57 PM84 °FWarm.10 mph66%29.89 "HgN/A
3:50 PM86 °FPassing clouds.10 mph62%29.89 "HgN/A
2:50 PM88 °FPassing clouds.12 mph55%29.89 "HgN/A
1:50 PM88 °FPassing clouds.10 mph59%29.89 "HgN/A
12:50 PM88 °FPassing clouds.10 mph55%29.92 "HgN/A
11:51 AM90 °FScattered clouds.6 mph55%29.98 "HgN/A
10:51 AM86 °FScattered clouds.2 mph66%30.01 "HgN/A
9:51 AM86 °FPassing clouds.5 mph66%30.01 "HgN/A
Weather by CustomWeather, © 2014

See weather overviewHow to use our weather pages